Time,TemperatureF,DewpointF,PressureIn,WindDirection,WindDirectionDegrees,WindSpeedMPH,WindSpeedGustMPH,Humidity,HourlyPrecipIn,Conditions,Clouds,dailyrainin,SoftwareType,DateUTC
2013-09-21 00:00:00,47.3,44.2,29.42,NE,45,0.0,0.0,89,0.00,,,-99.99,VWS V12.07,2013-09-21 05:00:00,
2013-09-21 00:05:00,47.3,44.2,29.42,NE,45,0.0,0.0,89,0.00,,,-99.99,VWS V12.07,2013-09-21 05:05:00,
2013-09-21 00:10:00,47.3,44.2,29.42,NE,45,0.0,0.0,89,0.00,,,-99.99,VWS V12.07,2013-09-21 05:10:00,
2013-09-21 00:15:00,47.4,44.3,29.42,NE,45,0.0,0.0,89,0.00,,,-99.99,VWS V12.07,2013-09-21 05:15:00,
2013-09-21 00:20:00,47.4,44.3,29.42,NE,45,0.0,0.0,89,0.00,,,-99.99,VWS V12.07,2013-09-21 05:20:00,
2013-09-21 00:25:00,47.4,44.3,29.42,NE,45,0.0,0.0,89,0.00,,,-99.99,VWS V12.07,2013-09-21 05:25:00,
2013-09-21 00:30:00,47.3,44.2,29.42,West,270,0.0,0.0,89,0.00,,,-99.99,VWS V12.07,2013-09-21 05:30:00,
2013-09-21 00:35:00,47.3,44.2,29.42,West,270,0.0,0.0,89,0.00,,,-99.99,VWS V12.07,2013-09-21 05:35:00,
2013-09-21 00:40:00,47.1,44.0,29.42,West,270,0.0,0.0,89,0.00,,,-99.99,VWS V12.07,2013-09-21 05:40:00,
2013-09-21 00:45:00,47.1,44.0,29.42,West,270,0.0,0.0,89,0.00,,,-99.99,VWS V12.07,2013-09-21 05:45:00,
2013-09-21 00:50:00,46.9,43.8,29.42,West,270,0.0,0.0,89,0.00,,,-99.99,VWS V12.07,2013-09-21 05:50:00,
2013-09-21 00:55:00,46.9,43.8,29.42,West,270,0.0,0.0,89,0.00,,,-99.99,VWS V12.07,2013-09-21 05:55:00,
2013-09-21 01:00:00,46.5,43.4,29.42,West,270,0.0,0.0,89,0.00,,,-99.99,VWS V12.07,2013-09-21 06:00:00,
2013-09-21 01:05:00,46.4,43.3,29.42,West,270,0.0,0.0,89,0.00,,,-99.99,VWS V12.07,2013-09-21 06:05:00,
2013-09-21 01:10:00,46.2,43.1,29.42,West,270,0.0,0.0,89,0.00,,,-99.99,VWS V12.07,2013-09-21 06:10:00,
2013-09-21 01:15:00,46.0,43.0,29.42,West,270,0.0,0.0,89,0.00,,,-99.99,VWS V12.07,2013-09-21 06:15:00,
2013-09-21 01:20:00,45.8,42.8,29.42,West,270,0.0,0.0,89,0.00,,,-99.99,VWS V12.07,2013-09-21 06:20:00,
2013-09-21 01:25:00,45.6,42.5,29.42,West,270,0.0,0.0,89,0.00,,,-99.99,VWS V12.07,2013-09-21 06:25:00,
2013-09-21 01:30:00,45.5,42.5,29.42,West,270,0.0,0.0,89,0.00,,,-99.99,VWS V12.07,2013-09-21 06:30:00,
2013-09-21 01:35:00,45.3,42.3,29.42,West,270,0.0,0.0,89,0.00,,,-99.99,VWS V12.07,2013-09-21 06:35:00,
2013-09-21 01:40:00,45.3,42.3,29.42,West,270,0.0,0.0,89,0.00,,,-99.99,VWS V12.07,2013-09-21 06:40:00,
2013-09-21 01:45:00,45.3,42.3,29.42,West,270,0.0,0.0,89,0.00,,,-99.99,VWS V12.07,2013-09-21 06:45:00,
2013-09-21 01:50:00,45.3,42.3,29.42,West,270,0.0,0.0,89,0.00,,,-99.99,VWS V12.07,2013-09-21 06:50:00,
2013-09-21 01:55:00,45.3,42.3,29.42,West,270,0.0,0.0,89,0.00,,,-99.99,VWS V12.07,2013-09-21 06:55:00,
2013-09-21 02:00:00,45.3,42.5,29.42,West,270,0.0,0.0,90,0.00,,,-99.99,VWS V12.07,2013-09-21 07:00:00,
2013-09-21 02:05:00,45.5,42.7,29.42,West,270,0.0,0.0,90,0.00,,,-99.99,VWS V12.07,2013-09-21 07:05:00,
2013-09-21 02:10:00,45.6,42.8,29.42,SW,225,0.0,0.0,90,0.00,,,-99.99,VWS V12.07,2013-09-21 07:10:00,
2013-09-21 02:15:00,45.6,42.8,29.42,SW,225,0.0,0.0,90,0.00,,,-99.99,VWS V12.07,2013-09-21 07:15:00,
2013-09-21 02:20:00,45.6,42.8,29.42,SW,225,0.0,0.0,90,0.00,,,-99.99,VWS V12.07,2013-09-21 07:20:00,
2013-09-21 02:25:00,45.6,42.8,29.42,SW,225,0.0,0.0,90,0.00,,,-99.99,VWS V12.07,2013-09-21 07:25:00,
2013-09-21 02:30:00,45.6,42.8,29.42,SW,225,0.0,0.0,90,0.00,,,-99.99,VWS V12.07,2013-09-21 07:30:00,
2013-09-21 02:35:00,45.6,42.8,29.42,SW,225,0.0,0.0,90,0.00,,,-99.99,VWS V12.07,2013-09-21 07:35:00,
2013-09-21 02:40:00,45.6,42.8,29.42,SW,225,0.0,0.0,90,0.00,,,-99.99,VWS V12.07,2013-09-21 07:40:00,
2013-09-21 02:45:00,45.6,42.8,29.42,SW,225,0.0,0.0,90,0.00,,,-99.99,VWS V12.07,2013-09-21 07:45:00,
2013-09-21 02:50:00,45.6,42.8,29.42,SW,225,0.0,0.0,90,0.00,,,-99.99,VWS V12.07,2013-09-21 07:50:00,
2013-09-21 02:55:00,45.6,42.8,29.42,SW,225,0.0,0.0,90,0.00,,,-99.99,VWS V12.07,2013-09-21 07:55:00,
2013-09-21 03:00:00,45.6,42.8,29.42,SW,225,0.0,0.0,90,0.00,,,-99.99,VWS V12.07,2013-09-21 08:00:00,
2013-09-21 03:05:00,45.6,42.8,29.42,SW,225,0.0,0.0,90,0.00,,,-99.99,VWS V12.07,2013-09-21 08:05:00,
2013-09-21 03:10:00,45.6,42.8,29.42,SW,225,0.0,0.0,90,0.00,,,-99.99,VWS V12.07,2013-09-21 08:10:00,
2013-09-21 03:15:00,45.6,42.8,29.42,SW,225,0.0,0.0,90,0.00,,,-99.99,VWS V12.07,2013-09-21 08:15:00,
2013-09-21 03:20:00,45.6,42.8,29.42,SW,225,0.0,0.0,90,0.00,,,-99.99,VWS V12.07,2013-09-21 08:20:00,
2013-09-21 03:25:00,45.6,42.8,29.43,SW,225,0.0,0.0,90,0.00,,,-99.99,VWS V12.07,2013-09-21 08:25:00,
2013-09-21 03:30:00,45.6,42.8,29.43,SW,225,0.0,0.0,90,0.00,,,-99.99,VWS V12.07,2013-09-21 08:30:00,
2013-09-21 03:35:00,45.5,42.7,29.42,SW,225,0.0,0.0,90,0.00,,,-99.99,VWS V12.07,2013-09-21 08:35:00,
2013-09-21 03:40:00,45.5,42.7,29.43,SW,225,0.0,0.0,90,0.00,,,-99.99,VWS V12.07,2013-09-21 08:40:00,
2013-09-21 03:45:00,45.5,42.7,29.43,SW,225,0.0,0.0,90,0.00,,,-99.99,VWS V12.07,2013-09-21 08:45:00,
2013-09-21 03:50:00,45.5,42.7,29.43,SW,225,0.0,0.0,90,0.00,,,-99.99,VWS V12.07,2013-09-21 08:50:00,
2013-09-21 03:55:00,45.5,42.7,29.43,SW,225,0.0,0.0,90,0.00,,,-99.99,VWS V12.07,2013-09-21 08:55:00,
2013-09-21 04:00:00,45.5,42.7,29.43,SW,225,0.0,0.0,90,0.00,,,-99.99,VWS V12.07,2013-09-21 09:00:00,
2013-09-21 04:05:00,45.5,42.7,29.43,SW,225,0.0,0.0,90,0.00,,,-99.99,VWS V12.07,2013-09-21 09:05:00,
2013-09-21 04:10:00,45.6,42.8,29.43,SW,225,0.0,0.0,90,0.00,,,-99.99,VWS V12.07,2013-09-21 09:10:00,
2013-09-21 04:15:00,45.5,42.7,29.43,SW,225,0.0,0.0,90,0.00,,,-99.99,VWS V12.07,2013-09-21 09:15:00,
2013-09-21 04:20:00,45.6,42.8,29.42,SW,225,0.0,0.0,90,0.00,,,-99.99,VWS V12.07,2013-09-21 09:20:00,
2013-09-21 04:25:00,45.5,42.7,29.43,SW,225,0.0,0.0,90,0.00,,,-99.99,VWS V12.07,2013-09-21 09:25:00,
2013-09-21 04:30:00,45.5,42.7,29.43,SW,225,0.0,0.0,90,0.00,,,-99.99,VWS V12.07,2013-09-21 09:30:00,
2013-09-21 04:35:00,45.5,42.7,29.43,SW,225,0.0,0.0,90,0.00,,,-99.99,VWS V12.07,2013-09-21 09:35:00,
2013-09-21 04:40:00,45.5,42.7,29.43,WSW,248,0.0,0.0,90,0.00,,,-99.99,VWS V12.07,2013-09-21 09:40:00,
2013-09-21 04:45:00,45.3,42.5,29.43,WSW,248,0.0,0.0,90,0.00,,,-99.99,VWS V12.07,2013-09-21 09:45:00,
2013-09-21 04:50:00,45.3,42.5,29.43,WSW,248,0.0,0.0,90,0.00,,,-99.99,VWS V12.07,2013-09-21 09:50:00,
2013-09-21 04:55:00,45.3,42.5,29.43,WSW,248,0.0,0.0,90,0.00,,,-99.99,VWS V12.07,2013-09-21 09:55:00,
2013-09-21 05:00:00,45.3,42.5,29.43,WSW,248,0.0,0.0,90,0.00,,,-99.99,VWS V12.07,2013-09-21 10:00:00,
2013-09-21 05:05:00,45.3,42.5,29.43,WSW,248,0.0,0.0,90,0.00,,,-99.99,VWS V12.07,2013-09-21 10:05:00,
2013-09-21 05:10:00,45.5,42.7,29.43,WSW,248,0.0,0.0,90,0.00,,,-99.99,VWS V12.07,2013-09-21 10:10:00,
2013-09-21 05:15:00,45.5,42.7,29.43,West,270,0.0,0.0,90,0.00,,,-99.99,VWS V12.07,2013-09-21 10:15:00,
2013-09-21 05:20:00,45.5,42.7,29.43,West,270,0.0,0.0,90,0.00,,,-99.99,VWS V12.07,2013-09-21 10:20:00,
2013-09-21 05:25:00,45.6,42.8,29.43,West,270,0.0,0.0,90,0.00,,,-99.99,VWS V12.07,2013-09-21 10:25:00,
2013-09-21 05:30:00,45.6,42.8,29.44,West,270,0.0,0.0,90,0.00,,,-99.99,VWS V12.07,2013-09-21 10:30:00,
2013-09-21 05:35:00,45.6,42.8,29.44,West,270,0.0,0.0,90,0.00,,,-99.99,VWS V12.07,2013-09-21 10:35:00,
2013-09-21 05:40:00,45.6,42.8,29.44,West,270,0.0,0.0,90,0.00,,,-99.99,VWS V12.07,2013-09-21 10:40:00,
2013-09-21 05:45:00,45.6,42.8,29.44,West,270,0.0,0.0,90,0.00,,,-99.99,VWS V12.07,2013-09-21 10:45:00,
2013-09-21 05:50:00,45.6,42.8,29.43,West,270,0.0,0.0,90,0.00,,,-99.99,VWS V12.07,2013-09-21 10:50:00,
2013-09-21 05:55:00,45.6,42.8,29.44,West,270,0.0,0.0,90,0.00,,,-99.99,VWS V12.07,2013-09-21 10:55:00,
2013-09-21 06:00:00,45.6,42.8,29.44,West,270,0.0,0.0,90,0.00,,,-99.99,VWS V12.07,2013-09-21 11:00:00,
2013-09-21 06:05:00,45.6,42.8,29.44,SSW,202,0.0,0.0,90,0.00,,,-99.99,VWS V12.07,2013-09-21 11:05:00,
2013-09-21 06:10:00,45.6,42.8,29.44,WSW,248,0.0,0.0,90,0.00,,,-99.99,VWS V12.07,2013-09-21 11:10:00,
2013-09-21 06:15:00,45.6,42.8,29.44,WSW,248,0.0,0.0,90,0.00,,,-99.99,VWS V12.07,2013-09-21 11:15:00,
2013-09-21 06:20:00,45.6,42.8,29.44,WSW,248,0.0,0.0,90,0.00,,,-99.99,VWS V12.07,2013-09-21 11:20:00,
2013-09-21 06:25:00,45.6,42.8,29.44,NW,315,0.0,0.0,90,0.00,,,-99.99,VWS V12.07,2013-09-21 11:25:00,
2013-09-21 06:30:00,45.6,42.8,29.44,West,270,0.0,0.0,90,0.00,,,-99.99,VWS V12.07,2013-09-21 11:30:00,
2013-09-21 06:35:00,45.6,43.1,29.44,West,270,0.0,0.0,91,0.00,,,-99.99,VWS V12.07,2013-09-21 11:35:00,
2013-09-21 06:40:00,45.6,43.1,29.44,WSW,248,0.0,0.0,91,0.00,,,-99.99,VWS V12.07,2013-09-21 11:40:00,
2013-09-21 06:45:00,45.6,43.1,29.44,WSW,248,0.0,0.0,91,0.00,,,-99.99,VWS V12.07,2013-09-21 11:45:00,
2013-09-21 06:50:00,45.6,43.1,29.45,WSW,248,0.0,0.0,91,0.02,,,-99.99,VWS V12.07,2013-09-21 11:50:00,
2013-09-21 06:55:00,45.6,43.1,29.45,WSW,248,0.0,0.0,91,0.02,,,-99.99,VWS V12.07,2013-09-21 11:55:00,
2013-09-21 07:00:00,45.5,43.0,29.45,NNW,338,0.0,0.0,91,0.02,,,-99.99,VWS V12.07,2013-09-21 12:00:00,
2013-09-21 07:05:00,45.5,43.0,29.45,West,270,0.0,0.0,91,0.02,,,-99.99,VWS V12.07,2013-09-21 12:05:00,
2013-09-21 07:10:00,45.5,43.0,29.45,WSW,248,0.0,0.0,91,0.02,,,-99.99,VWS V12.07,2013-09-21 12:10:00,
2013-09-21 07:15:00,45.3,42.8,29.45,WSW,248,0.0,0.0,91,0.02,,,-99.99,VWS V12.07,2013-09-21 12:15:00,
2013-09-21 07:20:00,45.3,42.8,29.45,WSW,248,0.0,0.0,91,0.02,,,-99.99,VWS V12.07,2013-09-21 12:20:00,
2013-09-21 07:25:00,45.3,42.8,29.46,NE,45,0.0,0.0,91,0.02,,,-99.99,VWS V12.07,2013-09-21 12:25:00,
2013-09-21 07:30:00,45.1,42.6,29.46,NNE,22,0.0,0.0,91,0.02,,,-99.99,VWS V12.07,2013-09-21 12:30:00,
2013-09-21 07:35:00,45.1,42.6,29.46,NW,315,0.0,0.0,91,0.02,,,-99.99,VWS V12.07,2013-09-21 12:35:00,
2013-09-21 07:40:00,45.1,42.6,29.47,ENE,68,0.0,0.0,91,0.02,,,-99.99,VWS V12.07,2013-09-21 12:40:00,
2013-09-21 07:45:00,45.1,42.6,29.47,NE,45,0.0,0.0,91,0.00,,,-99.99,VWS V12.07,2013-09-21 12:45:00,
2013-09-21 07:50:00,44.9,42.4,29.47,North,0,0.0,0.0,91,0.00,,,-99.99,VWS V12.07,2013-09-21 12:50:00,
2013-09-21 07:55:00,44.9,42.4,29.47,North,0,0.0,0.0,91,0.00,,,-99.99,VWS V12.07,2013-09-21 12:55:00,
2013-09-21 08:00:00,44.9,42.4,29.47,NE,45,0.0,0.0,91,0.00,,,-99.99,VWS V12.07,2013-09-21 13:00:00,
2013-09-21 08:05:00,44.9,42.4,29.47,NW,315,0.0,0.0,91,0.00,,,-99.99,VWS V12.07,2013-09-21 13:05:00,
2013-09-21 08:10:00,44.7,42.2,29.47,West,270,0.0,0.0,91,0.00,,,-99.99,VWS V12.07,2013-09-21 13:10:00,
2013-09-21 08:15:00,44.7,42.2,29.47,NNW,338,0.0,0.0,91,0.00,,,-99.99,VWS V12.07,2013-09-21 13:15:00,
2013-09-21 08:20:00,44.6,42.1,29.48,WNW,292,0.0,0.0,91,0.00,,,-99.99,VWS V12.07,2013-09-21 13:20:00,
2013-09-21 08:25:00,44.6,42.1,29.48,NE,45,0.0,0.0,91,0.00,,,-99.99,VWS V12.07,2013-09-21 13:25:00,
2013-09-21 08:30:00,44.6,42.1,29.48,NNE,22,0.0,0.0,91,0.00,,,-99.99,VWS V12.07,2013-09-21 13:30:00,
2013-09-21 08:35:00,44.4,41.9,29.48,North,0,0.0,0.0,91,0.00,,,-99.99,VWS V12.07,2013-09-21 13:35:00,
2013-09-21 08:40:00,44.4,41.9,29.49,North,0,0.0,0.0,91,0.00,,,-99.99,VWS V12.07,2013-09-21 13:40:00,
2013-09-21 08:45:00,44.4,41.9,29.49,North,0,1.3,1.3,91,0.00,,,-99.99,VWS V12.07,2013-09-21 13:45:00,
2013-09-21 08:50:00,44.4,41.9,29.50,North,0,0.0,1.3,91,0.00,,,-99.99,VWS V12.07,2013-09-21 13:50:00,
2013-09-21 08:55:00,44.4,41.9,29.49,North,0,0.0,1.3,91,0.00,,,-99.99,VWS V12.07,2013-09-21 13:55:00,
2013-09-21 09:00:00,44.4,41.9,29.49,North,0,0.0,1.3,91,0.00,,,-99.99,VWS V12.07,2013-09-21 14:00:00,
2013-09-21 09:05:00,44.4,41.9,29.49,NW,315,0.0,0.0,91,0.00,,,-99.99,VWS V12.07,2013-09-21 14:05:00,
2013-09-21 09:10:00,44.4,41.9,29.49,NE,45,0.0,0.0,91,0.00,,,-99.99,VWS V12.07,2013-09-21 14:10:00,
2013-09-21 09:15:00,44.6,42.1,29.49,NE,45,0.0,0.0,91,0.00,,,-99.99,VWS V12.07,2013-09-21 14:15:00,
2013-09-21 09:20:00,44.7,42.2,29.49,West,270,0.0,4.2,91,0.00,,,-99.99,VWS V12.07,2013-09-21 14:20:00,
2013-09-21 09:25:00,44.7,42.2,29.50,NNE,22,8.2,8.7,91,0.00,,,-99.99,VWS V12.07,2013-09-21 14:25:00,
2013-09-21 09:30:00,44.6,41.8,29.49,NE,45,0.0,8.7,90,0.00,,,-99.99,VWS V12.07,2013-09-21 14:30:00,
2013-09-21 09:35:00,44.4,41.7,29.49,WNW,292,0.0,0.0,90,0.00,,,-99.99,VWS V12.07,2013-09-21 14:35:00,
2013-09-21 09:40:00,44.4,41.7,29.49,NNE,22,0.0,0.0,90,0.00,,,-99.99,VWS V12.07,2013-09-21 14:40:00,
2013-09-21 09:45:00,44.6,41.8,29.49,NE,45,0.0,0.0,90,0.00,,,-99.99,VWS V12.07,2013-09-21 14:45:00,
2013-09-21 09:50:00,44.4,41.7,29.50,NNE,22,0.0,3.5,90,0.00,,,-99.99,VWS V12.07,2013-09-21 14:50:00,
2013-09-21 09:55:00,44.4,41.7,29.49,NNE,22,0.0,3.5,90,0.00,,,-99.99,VWS V12.07,2013-09-21 14:55:00,
2013-09-21 10:00:00,44.2,41.5,29.50,ENE,68,0.0,3.5,90,0.00,,,-99.99,VWS V12.07,2013-09-21 15:00:00,
2013-09-21 10:05:00,44.2,41.5,29.50,NNE,22,0.0,0.0,90,0.00,,,-99.99,VWS V12.07,2013-09-21 15:05:00,
2013-09-21 10:10:00,44.2,41.5,29.49,NE,45,2.6,2.6,90,0.00,,,-99.99,VWS V12.07,2013-09-21 15:10:00,
2013-09-21 10:15:00,44.4,41.7,29.50,NW,315,0.0,2.6,90,0.00,,,-99.99,VWS V12.07,2013-09-21 15:15:00,
2013-09-21 10:20:00,44.4,41.7,29.50,NW,315,0.0,0.0,90,0.00,,,-99.99,VWS V12.07,2013-09-21 15:20:00,
2013-09-21 10:25:00,44.6,41.8,29.50,NE,45,0.0,2.9,90,0.00,,,-99.99,VWS V12.07,2013-09-21 15:25:00,
2013-09-21 10:30:00,44.7,42.0,29.50,NNE,22,0.0,2.9,90,0.00,,,-99.99,VWS V12.07,2013-09-21 15:30:00,
2013-09-21 10:35:00,44.7,42.0,29.50,North,0,0.0,0.0,90,0.00,,,-99.99,VWS V12.07,2013-09-21 15:35:00,
2013-09-21 10:40:00,44.9,41.9,29.50,NE,45,0.0,0.0,89,0.00,,,-99.99,VWS V12.07,2013-09-21 15:40:00,
2013-09-21 10:45:00,45.1,42.1,29.50,NE,45,0.0,0.0,89,0.00,,,-99.99,VWS V12.07,2013-09-21 15:45:00,
2013-09-21 10:50:00,45.1,42.1,29.50,NW,315,0.0,0.0,89,0.00,,,-99.99,VWS V12.07,2013-09-21 15:50:00,
2013-09-21 10:55:00,45.3,42.0,29.50,North,0,0.0,0.0,88,0.00,,,-99.99,VWS V12.07,2013-09-21 15:55:00,
2013-09-21 11:00:00,45.5,42.2,29.50,SSW,202,0.0,0.2,88,0.00,,,-99.99,VWS V12.07,2013-09-21 16:00:00,
2013-09-21 11:05:00,45.6,42.3,29.50,West,270,0.0,0.0,88,0.00,,,-99.99,VWS V12.07,2013-09-21 16:05:00,
2013-09-21 11:10:00,46.0,42.3,29.50,West,270,0.0,0.0,87,0.00,,,-99.99,VWS V12.07,2013-09-21 16:10:00,
2013-09-21 11:15:00,46.2,42.2,29.50,NNE,22,2.6,2.6,86,0.00,,,-99.99,VWS V12.07,2013-09-21 16:15:00,
2013-09-21 11:20:00,46.4,42.5,29.50,North,0,0.0,0.0,86,0.00,,,-99.99,VWS V12.07,2013-09-21 16:20:00,
2013-09-21 11:25:00,46.2,42.0,29.50,North,0,0.0,3.3,85,0.00,,,-99.99,VWS V12.07,2013-09-21 16:25:00,
2013-09-21 11:30:00,46.2,41.6,29.50,West,270,0.0,3.3,84,0.00,,,-99.99,VWS V12.07,2013-09-21 16:30:00,
2013-09-21 11:35:00,46.0,41.4,29.50,NNW,338,0.0,0.0,84,0.00,,,-99.99,VWS V12.07,2013-09-21 16:35:00,
2013-09-21 11:40:00,46.0,41.4,29.50,West,270,0.0,0.0,84,0.00,,,-99.99,VWS V12.07,2013-09-21 16:40:00,
2013-09-21 11:45:00,46.0,41.4,29.50,NNW,338,0.0,0.0,84,0.00,,,-99.99,VWS V12.07,2013-09-21 16:45:00,
2013-09-21 11:50:00,46.0,41.4,29.50,NE,45,0.0,0.0,84,0.00,,,-99.99,VWS V12.07,2013-09-21 16:50:00,
2013-09-21 11:55:00,46.0,41.4,29.50,West,270,0.0,0.0,84,0.00,,,-99.99,VWS V12.07,2013-09-21 16:55:00,
2013-09-21 12:00:00,46.2,41.6,29.50,WNW,292,0.0,0.0,84,0.00,,,-99.99,VWS V12.07,2013-09-21 17:00:00,
2013-09-21 12:05:00,46.2,41.6,29.50,WSW,248,0.0,0.0,84,0.00,,,-99.99,VWS V12.07,2013-09-21 17:05:00,
2013-09-21 12:10:00,46.4,41.5,29.50,NW,315,0.0,0.0,83,0.00,,,-99.99,VWS V12.07,2013-09-21 17:10:00,
2013-09-21 12:15:00,46.5,41.6,29.50,WNW,292,0.0,6.7,83,0.00,,,-99.99,VWS V12.07,2013-09-21 17:15:00,
2013-09-21 12:20:00,46.7,41.8,29.50,NE,45,0.0,0.0,83,0.00,,,-99.99,VWS V12.07,2013-09-21 17:20:00,
2013-09-21 12:25:00,46.9,41.7,29.50,NNE,22,0.0,0.0,82,0.00,,,-99.99,VWS V12.07,2013-09-21 17:25:00,
2013-09-21 12:30:00,46.7,41.5,29.50,NE,45,0.0,0.0,82,0.00,,,-99.99,VWS V12.07,2013-09-21 17:30:00,
2013-09-21 12:35:00,46.7,41.5,29.50,NNE,22,0.0,0.0,82,0.00,,,-99.99,VWS V12.07,2013-09-21 17:35:00,
2013-09-21 12:40:00,46.5,41.0,29.50,NE,45,0.0,0.0,81,0.00,,,-99.99,VWS V12.07,2013-09-21 17:40:00,
2013-09-21 12:45:00,46.4,40.9,29.50,NE,45,2.4,2.4,81,0.00,,,-99.99,VWS V12.07,2013-09-21 17:45:00,
2013-09-21 12:50:00,46.2,41.0,29.50,NE,45,0.0,0.0,82,0.00,,,-99.99,VWS V12.07,2013-09-21 17:50:00,
2013-09-21 12:55:00,46.2,41.0,29.49,NE,45,0.0,0.0,82,0.00,,,-99.99,VWS V12.07,2013-09-21 17:55:00,
2013-09-21 13:00:00,46.4,41.2,29.49,West,270,0.0,0.0,82,0.00,,,-99.99,VWS V12.07,2013-09-21 18:00:00,
2013-09-21 13:05:00,46.4,40.9,29.49,NNE,22,0.0,0.0,81,0.00,,,-99.99,VWS V12.07,2013-09-21 18:05:00,
2013-09-21 13:10:00,46.5,41.0,29.49,WNW,292,0.0,2.4,81,0.00,,,-99.99,VWS V12.07,2013-09-21 18:10:00,
2013-09-21 13:15:00,46.5,41.0,29.49,NNE,22,0.0,2.4,81,0.00,,,-99.99,VWS V12.07,2013-09-21 18:15:00,
2013-09-21 13:20:00,46.5,41.0,29.49,ENE,68,0.0,0.0,81,0.00,,,-99.99,VWS V12.07,2013-09-21 18:20:00,
2013-09-21 13:25:00,46.7,41.2,29.49,WSW,248,0.0,0.0,81,0.00,,,-99.99,VWS V12.07,2013-09-21 18:25:00,
2013-09-21 13:30:00,46.9,41.4,29.49,North,0,0.0,0.0,81,0.00,,,-99.99,VWS V12.07,2013-09-21 18:30:00,
2013-09-21 13:35:00,46.9,41.4,29.49,NNW,338,0.0,0.0,81,0.00,,,-99.99,VWS V12.07,2013-09-21 18:35:00,
2013-09-21 13:40:00,47.1,41.3,29.49,WNW,292,0.0,0.0,80,0.00,,,-99.99,VWS V12.07,2013-09-21 18:40:00,
2013-09-21 13:45:00,47.1,41.3,29.50,North,0,0.0,6.4,80,0.00,,,-99.99,VWS V12.07,2013-09-21 18:45:00,
2013-09-21 13:50:00,47.3,41.5,29.50,West,270,0.0,2.2,80,0.00,,,-99.99,VWS V12.07,2013-09-21 18:50:00,
2013-09-21 13:55:00,47.3,41.1,29.50,NNE,22,0.0,2.2,79,0.00,,,-99.99,VWS V12.07,2013-09-21 18:55:00,
2013-09-21 14:00:00,47.1,40.9,29.50,NNE,22,0.0,2.2,79,0.00,,,-99.99,VWS V12.07,2013-09-21 19:00:00,
2013-09-21 14:05:00,47.1,40.9,29.50,West,270,0.0,0.0,79,0.00,,,-99.99,VWS V12.07,2013-09-21 19:05:00,
2013-09-21 14:10:00,47.1,40.9,29.50,NNW,338,0.0,0.0,79,0.00,,,-99.99,VWS V12.07,2013-09-21 19:10:00,
2013-09-21 14:15:00,47.1,40.9,29.51,WNW,292,0.0,0.0,79,0.00,,,-99.99,VWS V12.07,2013-09-21 19:15:00,
2013-09-21 14:20:00,47.1,40.9,29.51,SW,225,0.0,0.0,79,0.00,,,-99.99,VWS V12.07,2013-09-21 19:20:00,
2013-09-21 14:25:00,46.9,40.7,29.51,SE,135,0.0,0.0,79,0.00,,,-99.99,VWS V12.07,2013-09-21 19:25:00,
2013-09-21 14:30:00,46.7,40.5,29.51,NE,45,0.0,0.0,79,0.00,,,-99.99,VWS V12.07,2013-09-21 19:30:00,
2013-09-21 14:35:00,46.7,40.5,29.51,NE,45,0.0,0.0,79,0.00,,,-99.99,VWS V12.07,2013-09-21 19:35:00,
2013-09-21 14:40:00,46.7,40.9,29.51,SSE,158,0.0,0.0,80,0.00,,,-99.99,VWS V12.07,2013-09-21 19:40:00,
2013-09-21 14:45:00,46.9,41.1,29.51,West,270,0.0,0.0,80,0.00,,,-99.99,VWS V12.07,2013-09-21 19:45:00,
2013-09-21 14:50:00,46.7,40.9,29.51,NNE,22,0.0,0.0,80,0.00,,,-99.99,VWS V12.07,2013-09-21 19:50:00,
2013-09-21 14:55:00,46.7,40.5,29.51,North,0,0.0,4.6,79,0.00,,,-99.99,VWS V12.07,2013-09-21 19:55:00,
2013-09-21 15:00:00,46.5,40.3,29.51,NW,315,0.0,4.6,79,0.00,,,-99.99,VWS V12.07,2013-09-21 20:00:00,
2013-09-21 15:05:00,46.5,40.3,29.51,West,270,0.0,0.0,79,0.00,,,-99.99,VWS V12.07,2013-09-21 20:05:00,
2013-09-21 15:10:00,46.4,40.2,29.51,NNE,22,0.0,0.0,79,0.00,,,-99.99,VWS V12.07,2013-09-21 20:10:00,
2013-09-21 15:15:00,46.2,40.1,29.51,NNE,22,0.0,0.0,79,0.00,,,-99.99,VWS V12.07,2013-09-21 20:15:00,
2013-09-21 15:20:00,46.5,40.3,29.51,West,270,0.0,0.0,79,0.00,,,-99.99,VWS V12.07,2013-09-21 20:20:00,
2013-09-21 15:25:00,46.4,40.2,29.51,NNE,22,0.0,0.0,79,0.00,,,-99.99,VWS V12.07,2013-09-21 20:25:00,
2013-09-21 15:30:00,46.2,40.1,29.51,NE,45,5.1,5.1,79,0.00,,,-99.99,VWS V12.07,2013-09-21 20:30:00,
2013-09-21 15:35:00,46.4,40.2,29.51,West,270,0.0,5.1,79,0.00,,,-99.99,VWS V12.07,2013-09-21 20:35:00,
2013-09-21 15:40:00,46.2,40.1,29.51,WSW,248,0.0,5.1,79,0.00,,,-99.99,VWS V12.07,2013-09-21 20:40:00,
2013-09-21 15:45:00,46.2,40.1,29.51,NE,45,0.0,5.1,79,0.00,,,-99.99,VWS V12.07,2013-09-21 20:45:00,
2013-09-21 15:50:00,46.2,40.1,29.51,WNW,292,0.0,0.0,79,0.00,,,-99.99,VWS V12.07,2013-09-21 20:50:00,
2013-09-21 15:55:00,46.2,40.1,29.52,SW,225,0.0,5.8,79,0.00,,,-99.99,VWS V12.07,2013-09-21 20:55:00,
2013-09-21 16:00:00,46.2,40.1,29.52,West,270,0.0,5.8,79,0.00,,,-99.99,VWS V12.07,2013-09-21 21:00:00,
2013-09-21 16:05:00,46.2,40.1,29.52,West,270,0.0,2.0,79,0.00,,,-99.99,VWS V12.07,2013-09-21 21:05:00,
2013-09-21 16:10:00,46.2,40.1,29.52,NNW,338,5.5,5.5,79,0.00,,,-99.99,VWS V12.07,2013-09-21 21:10:00,
2013-09-21 16:15:00,46.2,40.1,29.51,NW,315,0.0,5.5,79,0.00,,,-99.99,VWS V12.07,2013-09-21 21:15:00,
2013-09-21 16:20:00,46.2,40.1,29.52,NNE,22,0.0,0.0,79,0.00,,,-99.99,VWS V12.07,2013-09-21 21:20:00,
2013-09-21 16:25:00,46.4,40.2,29.52,NW,315,0.0,0.0,79,0.00,,,-99.99,VWS V12.07,2013-09-21 21:25:00,
2013-09-21 16:30:00,46.5,40.3,29.52,NW,315,0.0,0.0,79,0.00,,,-99.99,VWS V12.07,2013-09-21 21:30:00,
2013-09-21 16:35:00,46.5,40.3,29.51,NE,45,0.0,0.0,79,0.00,,,-99.99,VWS V12.07,2013-09-21 21:35:00,
2013-09-21 16:40:00,46.7,40.5,29.52,NE,45,0.0,0.0,79,0.00,,,-99.99,VWS V12.07,2013-09-21 21:40:00,
2013-09-21 16:45:00,46.9,40.7,29.51,NE,45,0.0,0.0,79,0.00,,,-99.99,VWS V12.07,2013-09-21 21:45:00,
2013-09-21 16:50:00,47.1,40.9,29.52,NNE,22,0.0,0.0,79,0.00,,,-99.99,VWS V12.07,2013-09-21 21:50:00,
2013-09-21 16:55:00,47.3,41.1,29.51,NNE,22,0.0,0.0,79,0.00,,,-99.99,VWS V12.07,2013-09-21 21:55:00,
2013-09-21 17:00:00,47.4,40.9,29.52,NNW,338,5.3,5.3,78,0.00,,,-99.99,VWS V12.07,2013-09-21 22:00:00,
2013-09-21 17:10:00,47.8,41.0,29.52,NE,45,0.0,3.8,77,0.00,,,-99.99,VWS V12.07,2013-09-21 22:10:00,
2013-09-21 17:15:00,47.8,41.0,29.52,NE,45,0.0,3.8,77,0.00,,,-99.99,VWS V12.07,2013-09-21 22:15:00,
2013-09-21 17:20:00,47.8,41.0,29.52,WNW,292,0.0,1.5,77,0.00,,,-99.99,VWS V12.07,2013-09-21 22:20:00,
2013-09-21 17:25:00,47.8,40.6,29.52,NNE,22,0.0,3.3,76,0.00,,,-99.99,VWS V12.07,2013-09-21 22:25:00,
2013-09-21 17:30:00,47.6,40.4,29.51,NE,45,0.0,3.3,76,0.00,,,-99.99,VWS V12.07,2013-09-21 22:30:00,
2013-09-21 17:35:00,47.6,40.4,29.52,NNW,338,0.0,0.0,76,0.00,,,-99.99,VWS V12.07,2013-09-21 22:35:00,
2013-09-21 17:40:00,47.8,41.0,29.52,NNW,338,0.0,0.0,77,0.00,,,-99.99,VWS V12.07,2013-09-21 22:40:00,
2013-09-21 17:45:00,48.0,41.2,29.52,NE,45,0.0,0.0,77,0.00,,,-99.99,VWS V12.07,2013-09-21 22:45:00,
2013-09-21 17:50:00,48.0,40.8,29.52,ENE,68,0.0,0.0,76,0.00,,,-99.99,VWS V12.07,2013-09-21 22:50:00,
2013-09-21 17:55:00,48.0,40.8,29.52,NNE,22,3.1,3.1,76,0.00,,,-99.99,VWS V12.07,2013-09-21 22:55:00,
2013-09-21 18:00:00,47.8,40.6,29.52,NNE,22,0.0,3.1,76,0.00,,,-99.99,VWS V12.07,2013-09-21 23:00:00,
2013-09-21 18:05:00,47.6,40.4,29.52,NW,315,0.0,0.0,76,0.00,,,-99.99,VWS V12.07,2013-09-21 23:05:00,
2013-09-21 18:10:00,47.3,40.1,29.52,NW,315,0.0,0.0,76,0.00,,,-99.99,VWS V12.07,2013-09-21 23:10:00,
2013-09-21 18:15:00,47.1,39.9,29.52,NW,315,0.0,0.0,76,0.00,,,-99.99,VWS V12.07,2013-09-21 23:15:00,
2013-09-21 18:20:00,46.9,39.7,29.52,North,0,0.0,0.0,76,0.00,,,-99.99,VWS V12.07,2013-09-21 23:20:00,
2013-09-21 18:25:00,46.5,39.4,29.52,NE,45,0.0,0.0,76,0.00,,,-99.99,VWS V12.07,2013-09-21 23:25:00,
2013-09-21 18:30:00,46.2,39.1,29.52,NE,45,0.0,0.0,76,0.00,,,-99.99,VWS V12.07,2013-09-21 23:30:00,
2013-09-21 18:35:00,46.0,39.2,29.52,NE,45,0.0,0.0,77,0.00,,,-99.99,VWS V12.07,2013-09-21 23:35:00,
2013-09-21 18:40:00,45.6,38.8,29.52,NE,45,0.0,0.0,77,0.00,,,-99.99,VWS V12.07,2013-09-21 23:40:00,
2013-09-21 18:45:00,45.3,38.5,29.52,NE,45,0.0,0.0,77,0.00,,,-99.99,VWS V12.07,2013-09-21 23:45:00,
2013-09-21 18:50:00,45.1,38.3,29.52,NE,45,0.0,0.0,77,0.00,,,-99.99,VWS V12.07,2013-09-21 23:50:00,
2013-09-21 18:55:00,44.9,38.5,29.52,NNE,22,0.0,0.0,78,0.00,,,-99.99,VWS V12.07,2013-09-21 23:55:00,
2013-09-21 19:00:00,44.6,38.2,29.52,NNE,22,0.0,0.0,78,0.00,,,-99.99,VWS V12.07,2013-09-22 00:00:00,
2013-09-21 19:05:00,44.4,38.0,29.52,NNE,22,0.0,0.0,78,0.00,,,-99.99,VWS V12.07,2013-09-22 00:05:00,
2013-09-21 19:10:00,44.0,37.6,29.52,NNE,22,0.0,0.0,78,0.00,,,-99.99,VWS V12.07,2013-09-22 00:10:00,
2013-09-21 19:15:00,43.8,37.4,29.52,NNE,22,0.0,0.0,78,0.00,,,-99.99,VWS V12.07,2013-09-22 00:15:00,
2013-09-21 19:20:00,43.5,37.4,29.52,NNE,22,0.0,0.0,79,0.00,,,-99.99,VWS V12.07,2013-09-22 00:20:00,
2013-09-21 19:25:00,43.3,37.2,29.52,NNE,22,0.0,0.0,79,0.00,,,-99.99,VWS V12.07,2013-09-22 00:25:00,
2013-09-21 19:30:00,42.9,36.8,29.52,NNE,22,0.0,0.0,79,0.00,,,-99.99,VWS V12.07,2013-09-22 00:30:00,
2013-09-21 19:35:00,42.6,36.5,29.52,NNE,22,0.0,0.0,79,0.00,,,-99.99,VWS V12.07,2013-09-22 00:35:00,
2013-09-21 19:40:00,42.0,36.3,29.53,NNE,22,0.0,0.0,80,0.00,,,-99.99,VWS V12.07,2013-09-22 00:40:00,
2013-09-21 19:45:00,41.9,36.2,29.53,NNE,22,0.0,0.0,80,0.00,,,-99.99,VWS V12.07,2013-09-22 00:45:00,
2013-09-21 19:50:00,41.5,35.8,29.53,NNE,22,0.0,0.0,80,0.00,,,-99.99,VWS V12.07,2013-09-22 00:50:00,
2013-09-21 19:55:00,41.1,35.4,29.53,NNE,22,0.0,0.0,80,0.00,,,-99.99,VWS V12.07,2013-09-22 00:55:00,
2013-09-21 20:00:00,40.8,35.1,29.54,NNE,22,0.0,0.0,80,0.00,,,-99.99,VWS V12.07,2013-09-22 01:00:00,
2013-09-21 20:05:00,40.8,35.4,29.54,NNE,22,0.0,0.0,81,0.00,,,-99.99,VWS V12.07,2013-09-22 01:05:00,
2013-09-21 20:10:00,40.2,34.8,29.54,NNE,22,0.0,0.0,81,0.00,,,-99.99,VWS V12.07,2013-09-22 01:10:00,
2013-09-21 20:15:00,40.1,34.8,29.54,NNE,22,0.0,0.0,81,0.00,,,-99.99,VWS V12.07,2013-09-22 01:15:00,
2013-09-21 20:20:00,39.7,34.7,29.54,NNE,22,0.0,0.0,82,0.00,,,-99.99,VWS V12.07,2013-09-22 01:20:00,
2013-09-21 20:25:00,39.5,34.5,29.54,NNE,22,0.0,0.0,82,0.00,,,-99.99,VWS V12.07,2013-09-22 01:25:00,
2013-09-21 20:30:00,39.3,34.3,29.54,NNE,22,0.0,0.0,82,0.00,,,-99.99,VWS V12.07,2013-09-22 01:30:00,
2013-09-21 20:35:00,39.0,34.0,29.54,NNE,22,0.0,0.0,82,0.00,,,-99.99,VWS V12.07,2013-09-22 01:35:00,
2013-09-21 20:40:00,39.0,34.0,29.55,NNE,22,0.0,0.0,82,0.00,,,-99.99,VWS V12.07,2013-09-22 01:40:00,
2013-09-21 20:45:00,38.8,33.8,29.55,NNE,22,0.0,0.0,82,0.00,,,-99.99,VWS V12.07,2013-09-22 01:45:00,
2013-09-21 20:50:00,38.6,33.9,29.55,NNE,22,0.0,0.0,83,0.00,,,-99.99,VWS V12.07,2013-09-22 01:50:00,
2013-09-21 20:55:00,38.4,33.7,29.55,NNE,22,0.0,0.0,83,0.00,,,-99.99,VWS V12.07,2013-09-22 01:55:00,
2013-09-21 21:00:00,38.3,33.6,29.55,NNE,22,0.0,0.0,83,0.00,,,-99.99,VWS V12.07,2013-09-22 02:00:00,
2013-09-21 21:05:00,38.1,33.4,29.55,NNE,22,0.0,0.0,83,0.00,,,-99.99,VWS V12.07,2013-09-22 02:05:00,
2013-09-21 21:10:00,37.9,33.2,29.55,NNE,22,0.0,0.0,83,0.00,,,-99.99,VWS V12.07,2013-09-22 02:10:00,
2013-09-21 21:15:00,37.9,33.2,29.55,NNE,22,0.0,0.0,83,0.00,,,-99.99,VWS V12.07,2013-09-22 02:15:00,
2013-09-21 21:20:00,37.5,33.1,29.55,NNE,22,0.0,0.0,84,0.00,,,-99.99,VWS V12.07,2013-09-22 02:20:00,
2013-09-21 21:25:00,37.4,33.0,29.55,NNE,22,0.0,0.0,84,0.00,,,-99.99,VWS V12.07,2013-09-22 02:25:00,
2013-09-21 21:30:00,37.2,32.8,29.55,NNE,22,0.0,0.0,84,0.00,,,-99.99,VWS V12.07,2013-09-22 02:30:00,
2013-09-21 21:35:00,37.2,32.8,29.55,NNE,22,0.0,0.0,84,0.00,,,-99.99,VWS V12.07,2013-09-22 02:35:00,
2013-09-21 21:40:00,37.0,32.6,29.55,NNE,22,0.0,0.0,84,0.00,,,-99.99,VWS V12.07,2013-09-22 02:40:00,
2013-09-21 21:45:00,36.6,32.2,29.56,NNE,22,0.0,0.0,84,0.00,,,-99.99,VWS V12.07,2013-09-22 02:45:00,
2013-09-21 21:50:00,36.6,32.2,29.56,NNE,22,0.0,0.0,84,0.00,,,-99.99,VWS V12.07,2013-09-22 02:50:00,
2013-09-21 21:55:00,36.5,32.1,29.55,NNE,22,0.0,0.0,84,0.00,,,-99.99,VWS V12.07,2013-09-22 02:55:00,
2013-09-21 22:00:00,36.3,31.9,29.56,NNE,22,0.0,0.0,84,0.00,,,-99.99,VWS V12.07,2013-09-22 03:00:00,
2013-09-21 22:05:00,36.3,32.2,29.56,NNE,22,0.0,0.0,85,0.00,,,-99.99,VWS V12.07,2013-09-22 03:05:00,
2013-09-21 22:10:00,36.3,32.2,29.56,NNE,22,0.0,0.0,85,0.00,,,-99.99,VWS V12.07,2013-09-22 03:10:00,
2013-09-21 22:15:00,36.3,32.2,29.56,NNE,22,0.0,0.0,85,0.00,,,-99.99,VWS V12.07,2013-09-22 03:15:00,
2013-09-21 22:20:00,36.3,32.2,29.57,NNE,22,0.0,0.0,85,0.00,,,-99.99,VWS V12.07,2013-09-22 03:20:00,
2013-09-21 22:25:00,36.1,32.0,29.57,NNE,22,0.0,0.0,85,0.00,,,-99.99,VWS V12.07,2013-09-22 03:25:00,
2013-09-21 22:30:00,36.1,32.0,29.57,NNE,22,0.0,0.0,85,0.00,,,-99.99,VWS V12.07,2013-09-22 03:30:00,
2013-09-21 22:35:00,36.1,32.0,29.57,NNE,22,0.0,0.0,85,0.00,,,-99.99,VWS V12.07,2013-09-22 03:35:00,
2013-09-21 22:40:00,36.1,32.0,29.57,NNE,22,0.0,0.0,85,0.00,,,-99.99,VWS V12.07,2013-09-22 03:40:00,
2013-09-21 22:45:00,36.1,32.3,29.57,NNE,22,0.0,0.0,86,0.00,,,-99.99,VWS V12.07,2013-09-22 03:45:00,
2013-09-21 22:50:00,36.1,32.3,29.57,NNE,22,0.0,0.0,86,0.00,,,-99.99,VWS V12.07,2013-09-22 03:50:00,
2013-09-21 22:55:00,35.9,32.1,29.57,NNE,22,0.0,0.0,86,0.00,,,-99.99,VWS V12.07,2013-09-22 03:55:00,
2013-09-21 23:00:00,35.9,32.1,29.57,NNE,22,0.0,0.0,86,0.00,,,-99.99,VWS V12.07,2013-09-22 04:00:00,
2013-09-21 23:05:00,35.7,31.9,29.57,NNE,22,0.0,0.0,86,0.00,,,-99.99,VWS V12.07,2013-09-22 04:05:00,
2013-09-21 23:10:00,35.7,31.9,29.57,NNE,22,0.0,0.0,86,0.00,,,-99.99,VWS V12.07,2013-09-22 04:10:00,
2013-09-21 23:15:00,35.6,31.8,29.57,NNE,22,0.0,0.0,86,0.00,,,-99.99,VWS V12.07,2013-09-22 04:15:00,
2013-09-21 23:20:00,35.4,31.6,29.57,NNE,22,0.0,0.0,86,0.00,,,-99.99,VWS V12.07,2013-09-22 04:20:00,
2013-09-21 23:25:00,35.4,31.6,29.58,NNE,22,0.0,0.0,86,0.00,,,-99.99,VWS V12.07,2013-09-22 04:25:00,
2013-09-21 23:30:00,35.2,31.4,29.58,NNE,22,0.0,0.0,86,0.00,,,-99.99,VWS V12.07,2013-09-22 04:30:00,
2013-09-21 23:35:00,34.8,31.0,29.58,NNE,22,0.0,0.0,86,0.00,,,-99.99,VWS V12.07,2013-09-22 04:35:00,
2013-09-21 23:40:00,34.7,31.0,29.58,NNE,22,0.0,0.0,86,0.00,,,-99.99,VWS V12.07,2013-09-22 04:40:00,
2013-09-21 23:45:00,34.5,30.8,29.58,NNE,22,0.0,0.0,86,0.00,,,-99.99,VWS V12.07,2013-09-22 04:45:00,
2013-09-21 23:50:00,34.3,30.6,29.58,NNE,22,0.0,0.0,86,0.00,,,-99.99,VWS V12.07,2013-09-22 04:50:00,
2013-09-21 23:55:00,34.3,30.6,29.58,NNE,22,0.0,0.0,86,0.00,,,-99.99,VWS V12.07,2013-09-22 04:55:00,